This is the latest recevied weather packets stored in our database for station/object HB9FHL-13. If no packets are shown the sender has not sent any weather packets the latest 10 day(s).
| Time | Temp. | Humidity | Pressure | Rain* | Wind** | Luminosity | Snow |
|---|---|---|---|---|---|---|---|
| 1777291822 | 18.33° C | - | 1015.6 hPa | 0 mm | - | - | - |
| 1777291521 | 18.33° C | - | 1015.8 hPa | 0 mm | - | - | - |
| 1777291221 | 17.78° C | - | 1015.2 hPa | 0 mm | - | - | - |
| 1777290921 | 17.22° C | - | 1019.5 hPa | 0 mm | - | - | - |
| 1777290619 | 17.22° C | - | 1015.3 hPa | 0 mm | - | - | - |
| 1777290318 | 17.22° C | - | 1023.5 hPa | 0 mm | - | - | - |
| 1777290018 | 16.67° C | - | 1020.6 hPa | 0 mm | - | - | - |
| 1777289717 | 16.67° C | - | 1021.2 hPa | 0 mm | - | - | - |
| 1777289417 | 16.67° C | - | 1017.5 hPa | 0 mm | - | - | - |
| 1777289116 | 16.11° C | - | 1017.4 hPa | 0 mm | - | - | - |
| 1777288816 | 17.78° C | - | 1019.5 hPa | 0 mm | - | - | - |
| 1777288515 | 16.11° C | - | 1025 hPa | 0 mm | - | - | - |
| 1777288215 | 16.67° C | - | 1017.1 hPa | 0 mm | - | - | - |
| 1777287914 | 16.11° C | - | 1015 hPa | 0 mm | - | - | - |
| 1777287614 | 16.67° C | - | 1023.6 hPa | 0 mm | - | - | - |
| 1777287313 | 15.56° C | - | 1021 hPa | 0 mm | - | - | - |
| 1777287014 | 16.11° C | - | 1017.8 hPa | 0 mm | - | - | - |
| 1777286712 | 16.11° C | - | 1019.1 hPa | 0 mm | - | - | - |
| 1777286412 | 16.11° C | - | 1018.4 hPa | 0 mm | - | - | - |
| 1777286111 | 14.44° C | - | 1020.2 hPa | 0 mm | - | - | - |
| 1777285810 | 15.56° C | - | 1022.5 hPa | 0 mm | - | - | - |
| 1777285510 | 15.56° C | - | 1023.8 hPa | 0 mm | - | - | - |
| 1777285209 | 15.56° C | - | 1021.6 hPa | 0 mm | - | - | - |
| 1777284909 | 16.11° C | - | 1018.5 hPa | 0 mm | - | - | - |
| 1777284608 | 15° C | - | 1021.4 hPa | 0 mm | - | - | - |
* Rain since midnight (hover to see other rain measurements)
** Current wind speed in m/s (hover to see current wind gust speed)